Location: Newark
(34.0667°N, 125.0833°E)
Time: 21:01:17
(UTC+00:00)

Hubble Space Telescope - Visible Passes

Search period start: 09 December 2019 00:00
Search period end: 19 December 2019 00:00
Orbit: 536 x 540 km, 28.5° (Epoch: 08 December)

Date Brightness Start Highest point End Pass type
(mag) Time Alt. Az. Time Alt. Az. Time Alt. Az.
10 Dec 3.8 21:51:50 10° S 21:53:16 12° SSE 21:54:42 10° SE visible
11 Dec 3.5 21:40:18 10° SSW 21:42:34 14° SSE 21:44:49 10° SE visible
12 Dec 3.4 21:29:06 10° SSW 21:31:51 17° SSE 21:34:37 10° ESE visible
13 Dec 3.1 21:18:04 10° SSW 21:21:10 20° SSE 21:24:16 10° ESE visible
14 Dec 2.8 21:07:17 11° SW 21:10:29 24° SSE 21:13:50 10° ESE visible
15 Dec 2.5 20:57:42 18° SSW 20:59:49 27° SSE 21:03:20 10° ESE visible
16 Dec 2.2 20:48:01 26° SSW 20:49:09 30° S 20:52:47 10° ESE visible
17 Dec 2.0 20:38:14 33° S 20:38:29 33° S 20:42:13 10° ESE visible
18 Dec 2.1 20:28:22 34° SSE 20:28:22 34° SSE 20:31:38 10° ESE visible
18 Dec 2.1 22:04:56 10° WSW 22:08:42 34° S 22:12:28 10° ESE visible
